Retour au catalogue

STARLINK-37561

ActifCommunicationsVLEO
NORAD 69821·PAYLOAD·🇺🇸 United States

Lancé Jul 5, 2026 depuis Cape Canaveral Space Force Station

Loading…

Prochains Passages (prochaines 24 heures)

TLE

FraisSource: CelesTrak SupGP

Époque: Sep 15, 2026, 04:10 UTC

1 69821C 26154C   26258.17409722  .00074268  00000+0  21940-2 0  2581
2 69821  53.1586 356.2667 0001063  94.4135 326.0600 15.34357777    14

Suivez STARLINK-37561 en temps réel avec AllMySat

Download on the App Store